CW0570 Weather Reports


Display with metric or nautical units.
time (UTC)temp
F
wind
direction
speed
MPH
gust
MPH
rain 1hr
in
rain 24hr
in
rain mn
in
humidity
%
barometer
mb
20260503001505 66 9 0.0 4.0 0.00 0.00 0.00 72 1010.5
20260503000003 66 337 1.0 6.0 0.00 0.00 0.00 71 1010.6
20260502234504 67 344 1.0 5.0 0.00 0.00 0.00 69 1010.6
20260502233002 68 322 2.0 6.0 0.00 0.00 0.00 72 1010.7
20260502231502 67 232 1.0 4.0 0.00 0.00 0.00 68 1010.7
20260502230100 67 307 1.0 5.0 0.00 0.00 0.00 71 1010.9
20260502224609 67 333 1.0 7.0 0.00 0.00 0.00 70 1011.0
20260502223057 68 333 2.0 6.0 0.00 0.00 0.00 70 1011.1
20260502221557 68 350 1.0 6.0 0.00 0.00 0.00 68 1011.4
20260502220055 70 5 2.0 9.0 0.00 0.00 0.00 67 1011.3
20260502214553 70 266 1.0 7.0 0.00 0.00 0.00 72 1011.4
20260502213105 70 178 2.0 7.0 0.00 0.00 0.00 67 1011.5
20260502211600 68 162 1.0 6.0 0.00 0.00 0.00 71 1011.5
20260502210044 67 229 2.0 8.0 0.00 0.00 0.00 74 1011.8
20260502204544 67 267 0.0 6.0 0.00 0.00 0.00 72 1011.9
20260502203041 67 58 1.0 7.0 0.00 0.00 0.00 72 1012.1
20260502201539 67 241 3.0 8.0 0.00 0.00 0.00 74 1012.1
20260502200036 66 178 1.0 4.0 0.00 0.00 0.00 75 1012.2
20260502194532 65 152 0.0 8.0 0.00 0.00 0.00 78 1012.5
20260502193029 64 214 3.0 7.0 0.00 0.00 0.00 76 1012.9
20260502191527 63 143 1.0 3.0 0.00 0.00 0.00 78 1013.1
20260502190032 62 233 1.0 7.0 0.00 0.00 0.00 78 1013.2
20260502184540 63 121 0.0 3.0 0.00 0.00 0.00 76 1013.3
20260502183035 61 340 1.0 6.0 0.00 0.00 0.00 78 1013.6
20260502181526 60 181 0.0 4.0 0.00 0.00 0.00 82 1013.8
20260502163100 54 5 0.0 2.0 0.00 0.00 0.00 89 1014.1
20260502161556 53 263 0.0 1.0 0.00 0.00 0.00 89 1014.2
20260502151556 51 328 1.0 3.0 0.00 0.00 0.00 91 1014.0
20260502123041 51 66 0.0 0.0 0.00 0.00 0.00 93 1014.2
20260502121537 51 66 0.0 0.0 0.00 0.00 0.00 93 1014.3
20260502114533 51 66 0.0 0.0 0.00 0.00 0.00 93 1014.6
20260502113035 51 66 0.0 2.0 0.00 0.00 0.00 93 1014.7
20260502111531 51 66 0.0 2.0 0.00 0.00 0.00 93 1014.8
20260502110036 51 9 0.0 0.0 0.00 0.00 0.00 94 1014.8
20260502104528 51 9 0.0 2.0 0.00 0.00 0.00 94 1014.8
20260502103033 51 9 0.0 0.0 0.00 0.00 0.00 94 1014.9
20260502101543 51 9 0.0 0.0 0.00 0.00 0.00 94 1014.8
20260502091520 51 9 0.0 0.0 0.00 0.00 0.00 93 1015.1
20260502071505 51 9 0.0 0.0 0.00 0.00 0.00 92 1016.8
20260502070002 51 9 0.0 0.0 0.00 0.00 0.00 92 1016.9
20260502064600 51 9 0.0 0.0 0.00 0.00 0.00 91 1016.8
20260502063106 51 9 0.0 2.0 0.00 0.00 0.00 91 1016.9
20260502061608 51 9 0.0 0.0 0.00 0.00 0.00 91 1017.1
20260502054559 51 9 0.0 2.0 0.00 0.00 0.00 90 1017.4
20260502053057 51 9 0.0 2.0 0.00 0.00 0.00 90 1017.5
20260502051656 51 5 0.0 5.0 0.00 0.00 0.00 90 1017.6
20260502050056 52 25 1.0 4.0 0.00 0.00 0.00 90 1017.8
20260502044555 52 24 0.0 4.0 0.00 0.00 0.00 90 1017.9
20260502043103 52 336 1.0 6.0 0.00 0.00 0.00 90 1017.9
20260502041554 52 10 1.0 3.0 0.00 0.00 0.00 89 1017.8
20260502040058 53 5 0.0 2.0 0.00 0.00 0.00 89 1017.7
20260502034553 53 9 0.0 3.0 0.00 0.00 0.00 88 1017.5
20260502033053 53 5 0.0 2.0 0.00 0.00 0.00 88 1017.4
20260502031551 53 5 0.0 2.0 0.00 0.00 0.00 88 1017.3
20260502030057 53 5 0.0 2.0 0.00 0.00 0.00 88 1017.2
20260502024550 54 360 0.0 3.0 0.00 0.00 0.00 88 1016.9
20260502023107 54 11 0.0 2.0 0.00 0.00 0.00 88 1017.0
20260502021550 54 11 0.0 2.0 0.00 0.00 0.00 88 1017.0
20260502020103 54 11 0.0 5.0 0.00 0.00 0.00 88 1017.0
20260502014551 54 5 0.0 4.0 0.00 0.00 0.00 88 1017.1
20260502013101 54 9 0.0 3.0 0.00 0.00 0.00 88 1017.4
20260502011548 55 360 1.0 5.0 0.00 0.00 0.00 87 1017.1
20260502010047 55 9 2.0 8.0 0.00 0.00 0.00 87 1017.1
20260502004604 56 238 1.0 5.0 0.00 0.00 0.00 86 1017.1
20260502003053 56 309 0.0 2.0 0.00 0.00 0.00 87 1017.0